Terug naar catalogus

THOR ABLESTAR DEB

ActiefLEO
NORAD 178·DEBRIS·🇺🇸 United States

Gelanceerd Jun 29, 1961 vanaf Cape Canaveral Space Force Station

Loading…

Volgende Passages (komende 24 uur)

TLE

VersSource: Space-Track

Epoch: Sep 14, 2026, 03:09 UTC

1 00178U 61015BC  26257.13194346  .00000012  00000-0  66222-4 0  9997
2 00178  66.8649 143.2169 0085277 290.7835  68.4125 13.93079410309630

Volg THOR ABLESTAR DEB in realtime met AllMySat

Download on the App Store